Location: Unnamed
(25.2826°S, 57.6099°W)
Time: 00:20:13
(UTC-04:00)

Hubble Space Telescope - Pass Details

Date: 25 January 2026
Orbit: 478 x 479 km, 28.5° (Epoch: 18 February)

Event Time Altitude Azimuth Distance (km) Brightness Sun altitude
Exits shadow 03:40:23 16° 30° (NNE) 1,300 2.7 -21.0°
Drops below altitude 10° 03:42:43 10° 68° (ENE) 1,649 3.7 -20.6°
Sets 03:45:32 0° 89° (E) 2,532 5.1 -20.1°
